sat.trackr.live / text

‹ back to catalog

STARLINK-35219

NORAD 66443 · 2025-259X

PAYLOAD ACTIVE UNKNOWN

§ Identity

Operator
Country
US
Launch date
2025-11-11
Launch site
AFETR
Launch vehicle
Mass (kg)
RCS (m²)

Purposes: comms

External: N2YO · Heavens-Above · Gunter

§ Orbital elements

Epoch: 2026-09-20T23:28:49.473696Z

Period
94.27 min
Inclination
42.9988°
Eccentricity
0.0000832
Mean motion
15.27585362 rev/d
Perigee alt
482.5 km
Apogee alt
483.6 km
Semi-major
6,861.2 km
B*
3.2110e-4
RAAN
251.8466°
Arg perigee
251.6644°
Mean anomaly
108.4117°
Rev number
4,924

§ Raw data

STARLINK-352191 66443U 25259X   26263.97835039  .00008586  00000+0  32110-3 0  99952 66443  42.9988 251.8466 0000832 251.6644 108.4117 15.27585362 49243

JSON: /api/v1/satellites/66443 · /tle

For live sub-satellite position, see the globe view (requires WebGL).

§ Visibility from observer

Set your observer location to see the next 7 days of passes ≥ 10°. The values pass through the URL so the page stays shareable.

No JS? Fill the form by hand. The geolocation button needs JavaScript.